Weather Roundup
Issued by NWS Springfield, MO

Home | Current Version | Previous Version | Text Only | Print | Product List | Glossary On
Versions: 1 2 3 4 5 6 7 8 9 10 11 12 13 14 15 16 17 18 19 20 21 22 23 24 25 26 27 28 29 30 31 32 33 34 35 36 37 38 39 40 41 42 43 44 45 46 47 48 49 50
000
NZUS99 KSGF 240507
HRRSGF

HOURLY WEATHER
NATIONAL WEATHER SERVICE SPRINGFIELD MO
1200 AM CDT WED MAY 24 2017

......SGF CWA......

CITY           SKY/WX    TMP DP  RH WIND       PRES   REMARKS
SPRINGFIELD    CLOUDY    56  49  77 CALM      29.75F
JOPLIN         CLOUDY    56  50  80 NW8       29.80F
WEST PLAINS    PTCLDY    55  51  86 W5        29.74F
ROLLA          CLEAR     51  48  89 NW6       29.71
OSAGE BEACH    PTCLDY    54  48  80 CALM      29.75F
BRANSON        CLEAR     54  50  87 CALM      29.76F

......SURROUNDING SGF CWA......

CITY           SKY/WX    TMP DP  RH WIND       PRES   REMARKS
CHANUTE        PTCLDY    54  47  77 NW8       29.82F
PARSONS        CLOUDY    55  48  77 N7        29.84F
COFFEYVILLE    CLOUDY    55  50  83 NW10      29.83F
EMPORIA        CLOUDY    53  46  77 NW8       29.84F
GROVE OK       PTCLDY    55  50  82 NW8       29.82S
ROGERS AR      CLOUDY    54  49  83 W7        29.80F
SILOAM SPRINGS MOCLDY    54  43  66 NW7       29.80F
HARRISON AR    CLOUDY    54  51  90 W7        29.76F
NEAR YELLVILLE PTCLDY    57  52  82 CALM      29.72F

......KANSAS AND MISSOURI......

CITY           SKY/WX    TMP DP  RH WIND       PRES   REMARKS
KANSAS CTY INT PTCLDY    52  46  80 NW8       29.78F
DOWNTOWN KC    PTCLDY    54  49  83 CALM      29.78F
COLUMBIA       CLEAR     53  48  83 NW5       29.73F
SEDALIA        CLOUDY    57  51  80 NW6       29.76F
ST JOSEPH      PTCLDY    51  48  89 NW10      29.79F
ST LOUIS       LGT RAIN  63  57  81 W9        29.68F
SPIRIT OF STL  CLOUDY    58  54  86 NW6       29.69F
KIRKSVILLE     CLEAR     46  45  96 CALM      29.73F
WICHITA        MOCLDY    56  45  66 N13       29.88F
TOPEKA         CLOUDY    54  48  80 NW8       29.82F
OLATHE         PTCLDY    51  50  96 NW5       29.79F

......TENNESSEE......

CITY           SKY/WX    TMP DP  RH WIND       PRES   REMARKS
MEMPHIS        LGT RAIN  62  61  96 W5        29.68S
NASHVILLE      CLOUDY    67  58  72 CALM      29.64F

......ARKANSAS.......

CITY           SKY/WX    TMP DP  RH WIND       PRES   REMARKS
FAYETTEVILLE   MOCLDY    55  49  80 W5        29.79F
FT SMITH       MOCLDY    62  50  64 W7        29.79F
LITTLE ROCK    CLOUDY    62  57  83 NW10      29.73S

......OKLAHOMA.......

CITY           SKY/WX    TMP DP  RH WIND       PRES   REMARKS
TULSA          MOCLDY    56  48  74 NW8       29.83S
PONCA CITY     CLEAR     52  44  74 NW3       29.88S
MCALESTER      PTCLDY    60  50  69 NW5       29.85F
OKLAHOMA CITY  PTCLDY    53  45  74 NW7       29.90S

......IOWA............

CITY           SKY/WX    TMP DP  RH WIND       PRES   REMARKS
DES MOINES     PTCLDY    51  47  86 NW7       29.74F
QUAD CITIES    PTCLDY    52  48  86 W3        29.67F

......ILLINOIS........

CITY           SKY/WX    TMP DP  RH WIND       PRES   REMARKS
QUINCY         PTCLDY    53  49  86 W3        29.70F
CHICAGO        LGT RAIN  56  53  90 N5        29.67S FOG



USA.gov is the U.S. government's official web portal to all federal, state and local government web resources and services.